Time,TemperatureF,DewpointF,PressureIn,WindDirection,WindDirectionDegrees,WindSpeedMPH,WindSpeedGustMPH,Humidity,HourlyPrecipIn,Conditions,Clouds,dailyrainin,SoftwareType,DateUTC
2013-04-28 00:01:00,57.0,31.0,29.78,South,181,14.0,-999.0,37,-99.99,,,-99.99,,2013-04-28 06:01:00,
2013-04-28 00:12:00,57.0,30.0,29.78,South,179,14.0,-999.0,36,-99.99,,,-99.99,,2013-04-28 06:12:00,
2013-04-28 00:21:00,56.0,30.0,29.77,South,175,12.0,-999.0,36,-99.99,,,-99.99,,2013-04-28 06:21:00,
2013-04-28 00:32:00,57.0,30.0,29.78,South,187,11.0,-999.0,36,-99.99,,,-99.99,,2013-04-28 06:32:00,
2013-04-28 00:42:00,56.0,30.0,29.77,SSW,197,9.0,-999.0,37,-99.99,,,-99.99,,2013-04-28 06:42:00,
2013-04-28 00:51:00,56.0,30.0,29.79,SW,218,6.0,-999.0,37,-99.99,,,-99.99,,2013-04-28 06:51:00,
2013-04-28 01:01:00,54.0,32.0,29.78,WNW,295,7.0,-999.0,44,-99.99,,,-99.99,,2013-04-28 07:01:00,
2013-04-28 01:11:00,52.0,33.0,29.78,NW,314,4.0,-999.0,48,-99.99,,,-99.99,,2013-04-28 07:11:00,
2013-04-28 01:21:00,54.0,31.0,29.79,WNW,298,4.0,-999.0,42,-99.99,,,-99.99,,2013-04-28 07:21:00,
2013-04-28 01:32:00,54.0,31.0,29.78,West,281,5.0,-999.0,42,-99.99,,,-99.99,,2013-04-28 07:32:00,
2013-04-28 01:42:00,55.0,30.0,29.78,WSW,247,7.0,-999.0,38,-99.99,,,-99.99,,2013-04-28 07:42:00,
2013-04-28 01:52:00,55.0,31.0,29.78,SW,232,7.0,-999.0,40,-99.99,,,-99.99,,2013-04-28 07:52:00,
2013-04-28 02:02:00,54.0,31.0,29.76,SW,235,7.0,-999.0,41,-99.99,,,-99.99,,2013-04-28 08:02:00,
2013-04-28 02:11:00,55.0,30.0,29.77,SW,226,8.0,-999.0,38,-99.99,,,-99.99,,2013-04-28 08:11:00,
2013-04-28 02:21:00,55.0,30.0,29.76,SW,218,10.0,-999.0,39,-99.99,,,-99.99,,2013-04-28 08:21:00,
2013-04-28 02:32:00,53.0,31.0,29.76,SSW,202,11.0,-999.0,43,-99.99,,,-99.99,,2013-04-28 08:32:00,
2013-04-28 02:42:00,53.0,31.0,29.75,South,191,11.0,-999.0,43,-99.99,,,-99.99,,2013-04-28 08:42:00,
2013-04-28 02:52:00,53.0,31.0,29.73,South,186,12.0,-999.0,43,-99.99,,,-99.99,,2013-04-28 08:52:00,
2013-04-28 03:01:00,54.0,31.0,29.74,SSW,204,10.0,-999.0,41,-99.99,,,-99.99,,2013-04-28 09:01:00,
2013-04-28 03:11:00,53.0,31.0,29.74,SSW,194,10.0,-999.0,43,-99.99,,,-99.99,,2013-04-28 09:11:00,
2013-04-28 03:21:00,53.0,31.0,29.74,SSW,203,9.0,-999.0,43,-99.99,,,-99.99,,2013-04-28 09:21:00,
2013-04-28 03:33:00,52.0,32.0,29.74,SSW,204,8.0,-999.0,46,-99.99,,,-99.99,,2013-04-28 09:33:00,
2013-04-28 03:42:00,52.0,31.0,29.74,SW,221,6.0,-999.0,45,-99.99,,,-99.99,,2013-04-28 09:42:00,
2013-04-28 03:53:00,52.0,32.0,29.73,SSW,209,8.0,-999.0,46,-99.99,,,-99.99,,2013-04-28 09:53:00,
2013-04-28 04:03:00,51.0,32.0,29.72,SSW,204,7.0,-999.0,47,-99.99,,,-99.99,,2013-04-28 10:03:00,
2013-04-28 04:12:00,50.0,32.0,29.70,South,181,9.0,-999.0,50,-99.99,,,-99.99,,2013-04-28 10:12:00,
2013-04-28 04:22:00,50.0,33.0,29.72,South,179,10.0,-999.0,52,-99.99,,,-99.99,,2013-04-28 10:22:00,
2013-04-28 04:32:00,50.0,31.0,29.71,South,181,12.0,-999.0,48,-99.99,,,-99.99,,2013-04-28 10:32:00,
2013-04-28 04:42:00,50.0,32.0,29.72,WSW,247,5.0,-999.0,49,-99.99,,,-99.99,,2013-04-28 10:42:00,
2013-04-28 04:52:00,49.0,32.0,29.71,WSW,252,3.0,-999.0,52,-99.99,,,-99.99,,2013-04-28 10:52:00,
2013-04-28 05:02:00,51.0,31.0,29.73,WSW,239,5.0,-999.0,47,-99.99,,,-99.99,,2013-04-28 11:02:00,
2013-04-28 05:11:00,50.0,32.0,29.71,SW,228,5.0,-999.0,49,-99.99,,,-99.99,,2013-04-28 11:11:00,
2013-04-28 05:22:00,50.0,31.0,29.72,SW,230,6.0,-999.0,48,-99.99,,,-99.99,,2013-04-28 11:22:00,
2013-04-28 05:32:00,50.0,32.0,29.71,SW,225,8.0,-999.0,50,-99.99,,,-99.99,,2013-04-28 11:32:00,
2013-04-28 05:42:00,49.0,31.0,29.70,SW,229,10.0,-999.0,50,-99.99,,,-99.99,,2013-04-28 11:42:00,
2013-04-28 05:52:00,49.0,31.0,29.70,SW,216,11.0,-999.0,50,-99.99,,,-99.99,,2013-04-28 11:52:00,
2013-04-28 06:02:00,50.0,31.0,29.72,SW,225,11.0,-999.0,47,-99.99,,,-99.99,,2013-04-28 12:02:00,
2013-04-28 06:12:00,50.0,31.0,29.70,SW,232,11.0,-999.0,47,-99.99,,,-99.99,,2013-04-28 12:12:00,
2013-04-28 06:21:00,49.0,31.0,29.72,WSW,237,11.0,-999.0,49,-99.99,,,-99.99,,2013-04-28 12:21:00,
2013-04-28 06:32:00,49.0,30.0,29.70,WSW,246,12.0,-999.0,49,-99.99,,,-99.99,,2013-04-28 12:32:00,
2013-04-28 06:42:00,46.0,31.0,29.74,West,276,13.0,-999.0,56,-99.99,,,-99.99,,2013-04-28 12:42:00,
2013-04-28 06:52:00,45.0,33.0,29.72,WNW,296,13.0,-999.0,62,-99.99,,,-99.99,,2013-04-28 12:52:00,
2013-04-28 07:02:00,45.0,33.0,29.73,West,281,14.0,-999.0,63,-99.99,,,-99.99,,2013-04-28 13:02:00,
2013-04-28 07:11:00,45.0,33.0,29.73,West,272,12.0,-999.0,63,-99.99,,,-99.99,,2013-04-28 13:11:00,
2013-04-28 07:21:00,46.0,34.0,29.74,West,271,10.0,-999.0,61,-99.99,,,-99.99,,2013-04-28 13:21:00,
2013-04-28 07:32:00,47.0,34.0,29.76,West,270,11.0,-999.0,61,-99.99,,,-99.99,,2013-04-28 13:32:00,
2013-04-28 07:42:00,47.0,34.0,29.77,WNW,284,13.0,-999.0,61,-99.99,,,-99.99,,2013-04-28 13:42:00,
2013-04-28 07:52:00,48.0,35.0,29.77,WNW,290,16.0,-999.0,62,-99.99,,,-99.99,,2013-04-28 13:52:00,
2013-04-28 08:02:00,49.0,35.0,29.77,WNW,298,15.0,-999.0,60,-99.99,,,-99.99,,2013-04-28 14:02:00,
2013-04-28 08:11:00,51.0,35.0,29.78,NW,308,15.0,-999.0,54,-99.99,,,-99.99,,2013-04-28 14:11:00,
2013-04-28 08:22:00,53.0,34.0,29.79,NNW,333,17.0,-999.0,48,-99.99,,,-99.99,,2013-04-28 14:22:00,
2013-04-28 08:32:00,57.0,32.0,29.79,West,259,20.0,-999.0,39,-99.99,,,-99.99,,2013-04-28 14:32:00,
2013-04-28 08:42:00,59.0,30.0,29.77,North,-999,23.0,-999.0,33,-99.99,,,-99.99,,2013-04-28 14:42:00,
2013-04-28 08:52:00,60.0,30.0,29.77,ESE,108,26.0,-999.0,32,-99.99,,,-99.99,,2013-04-28 14:52:00,
2013-04-28 09:02:00,60.0,29.0,29.79,South,176,23.0,-999.0,31,-99.99,,,-99.99,,2013-04-28 15:02:00,
2013-04-28 09:12:00,60.0,29.0,29.79,South,176,23.0,-999.0,31,-99.99,,,-99.99,,2013-04-28 15:12:00,
2013-04-28 09:21:00,61.0,29.0,29.80,North,-999,32.0,-999.0,29,-99.99,,,-99.99,,2013-04-28 15:21:00,
2013-04-28 09:32:00,61.0,28.0,29.79,North,-999,28.0,-999.0,28,-99.99,,,-99.99,,2013-04-28 15:32:00,
2013-04-28 09:42:00,62.0,28.0,29.79,North,-999,35.0,-999.0,28,-99.99,,,-99.99,,2013-04-28 15:42:00,
2013-04-28 09:53:00,62.0,28.0,29.80,NNW,341,21.0,-999.0,27,-99.99,,,-99.99,,2013-04-28 15:53:00,
2013-04-28 10:03:00,63.0,27.0,29.80,WSW,258,31.0,-999.0,25,-99.99,,,-99.99,,2013-04-28 16:03:00,
2013-04-28 10:13:00,64.0,27.0,29.78,NNW,329,28.0,-999.0,25,-99.99,,,-99.99,,2013-04-28 16:13:00,
2013-04-28 10:23:00,64.0,27.0,29.80,NW,320,29.0,-999.0,25,-99.99,,,-99.99,,2013-04-28 16:23:00,
2013-04-28 10:33:00,65.0,27.0,29.80,South,173,29.0,-999.0,24,-99.99,,,-99.99,,2013-04-28 16:33:00,
2013-04-28 10:42:00,65.0,27.0,29.82,North,-999,27.0,-999.0,24,-99.99,,,-99.99,,2013-04-28 16:42:00,
2013-04-28 10:52:00,66.0,26.0,29.80,East,89,24.0,-999.0,22,-99.99,,,-99.99,,2013-04-28 16:52:00,
2013-04-28 11:02:00,66.0,25.0,29.79,North,-999,28.0,-999.0,21,-99.99,,,-99.99,,2013-04-28 17:02:00,
2013-04-28 11:12:00,66.0,25.0,29.81,North,-999,28.0,-999.0,21,-99.99,,,-99.99,,2013-04-28 17:12:00,
2013-04-28 11:22:00,66.0,27.0,29.82,NNW,343,23.0,-999.0,23,-99.99,,,-99.99,,2013-04-28 17:22:00,
2013-04-28 11:32:00,67.0,28.0,29.81,NNE,12,31.0,-999.0,23,-99.99,,,-99.99,,2013-04-28 17:32:00,
2013-04-28 11:42:00,67.0,26.0,29.80,WSW,258,26.0,-999.0,21,-99.99,,,-99.99,,2013-04-28 17:42:00,
2013-04-28 11:52:00,67.0,27.0,29.80,WNW,297,27.0,-999.0,22,-99.99,,,-99.99,,2013-04-28 17:52:00,
2013-04-28 12:02:00,67.0,26.0,29.81,WNW,284,30.0,-999.0,21,-99.99,,,-99.99,,2013-04-28 18:02:00,
2013-04-28 12:12:00,67.0,27.0,29.80,NNW,341,35.0,-999.0,22,-99.99,,,-99.99,,2013-04-28 18:12:00,
2013-04-28 12:22:00,67.0,28.0,29.80,WSW,258,30.0,-999.0,23,-99.99,,,-99.99,,2013-04-28 18:22:00,
2013-04-28 12:32:00,65.0,26.0,29.80,North,-999,27.0,-999.0,23,-99.99,,,-99.99,,2013-04-28 18:32:00,
2013-04-28 12:42:00,65.0,28.0,29.82,NNW,339,29.0,-999.0,24,-99.99,,,-99.99,,2013-04-28 18:42:00,
2013-04-28 12:52:00,65.0,28.0,29.83,NNW,342,20.0,-999.0,25,-99.99,,,-99.99,,2013-04-28 18:52:00,
2013-04-28 13:02:00,65.0,28.0,29.83,North,-999,31.0,-999.0,25,-99.99,,,-99.99,,2013-04-28 19:02:00,
2013-04-28 13:11:00,65.0,28.0,29.84,SSE,167,17.0,-999.0,25,-99.99,,,-99.99,,2013-04-28 19:11:00,
2013-04-28 13:22:00,66.0,29.0,29.82,North,-999,28.0,-999.0,25,-99.99,,,-99.99,,2013-04-28 19:22:00,
2013-04-28 13:32:00,66.0,29.0,29.83,West,259,27.0,-999.0,25,-99.99,,,-99.99,,2013-04-28 19:32:00,
2013-04-28 13:42:00,65.0,29.0,29.83,North,-999,23.0,-999.0,25,-99.99,,,-99.99,,2013-04-28 19:42:00,
2013-04-28 13:52:00,66.0,29.0,29.83,North,-999,26.0,-999.0,25,-99.99,,,-99.99,,2013-04-28 19:52:00,
2013-04-28 14:02:00,66.0,29.0,29.84,North,-999,26.0,-999.0,25,-99.99,,,-99.99,,2013-04-28 20:02:00,
2013-04-28 14:12:00,65.0,29.0,29.83,NNE,15,23.0,-999.0,26,-99.99,,,-99.99,,2013-04-28 20:12:00,
2013-04-28 14:22:00,65.0,30.0,29.84,South,175,20.0,-999.0,27,-99.99,,,-99.99,,2013-04-28 20:22:00,
2013-04-28 14:32:00,65.0,29.0,29.82,North,6,21.0,-999.0,26,-99.99,,,-99.99,,2013-04-28 20:32:00,
2013-04-28 14:42:00,65.0,29.0,29.83,NE,38,24.0,-999.0,26,-99.99,,,-99.99,,2013-04-28 20:42:00,
2013-04-28 14:52:00,65.0,29.0,29.83,North,10,17.0,-999.0,26,-99.99,,,-99.99,,2013-04-28 20:52:00,
2013-04-28 15:01:00,64.0,30.0,29.83,North,6,27.0,-999.0,27,-99.99,,,-99.99,,2013-04-28 21:01:00,
2013-04-28 15:11:00,65.0,30.0,29.82,NNE,17,26.0,-999.0,27,-99.99,,,-99.99,,2013-04-28 21:11:00,
2013-04-28 15:22:00,64.0,29.0,29.83,NNE,15,21.0,-999.0,27,-99.99,,,-99.99,,2013-04-28 21:22:00,
2013-04-28 15:33:00,63.0,29.0,29.83,NNE,14,19.0,-999.0,27,-99.99,,,-99.99,,2013-04-28 21:33:00,
2013-04-28 15:42:00,63.0,30.0,29.85,NNE,24,24.0,-999.0,29,-99.99,,,-99.99,,2013-04-28 21:42:00,
2013-04-28 15:52:00,62.0,30.0,29.84,North,8,23.0,-999.0,29,-99.99,,,-99.99,,2013-04-28 21:52:00,
2013-04-28 16:03:00,61.0,30.0,29.85,North,10,21.0,-999.0,31,-99.99,,,-99.99,,2013-04-28 22:03:00,
2013-04-28 16:12:00,62.0,30.0,29.85,North,4,23.0,-999.0,30,-99.99,,,-99.99,,2013-04-28 22:12:00,
2013-04-28 16:23:00,62.0,31.0,29.83,NNE,22,21.0,-999.0,31,-99.99,,,-99.99,,2013-04-28 22:23:00,
2013-04-28 16:33:00,62.0,30.0,29.83,East,88,18.0,-999.0,30,-99.99,,,-99.99,,2013-04-28 22:33:00,
2013-04-28 16:42:00,62.0,30.0,29.84,East,88,22.0,-999.0,29,-99.99,,,-99.99,,2013-04-28 22:42:00,
2013-04-28 16:52:00,63.0,31.0,29.85,NNW,343,16.0,-999.0,30,-99.99,,,-99.99,,2013-04-28 22:52:00,
2013-04-28 17:02:00,64.0,31.0,29.85,East,95,11.0,-999.0,29,-99.99,,,-99.99,,2013-04-28 23:02:00,
2013-04-28 17:12:00,65.0,31.0,29.84,SSW,200,17.0,-999.0,28,-99.99,,,-99.99,,2013-04-28 23:12:00,
2013-04-28 17:22:00,65.0,32.0,29.84,NW,325,15.0,-999.0,29,-99.99,,,-99.99,,2013-04-28 23:22:00,
2013-04-28 17:32:00,64.0,31.0,29.84,NNW,338,15.0,-999.0,28,-99.99,,,-99.99,,2013-04-28 23:32:00,
2013-04-28 17:42:00,63.0,31.0,29.83,North,-999,17.0,-999.0,30,-99.99,,,-99.99,,2013-04-28 23:42:00,
2013-04-28 17:52:00,62.0,30.0,29.85,NNW,330,19.0,-999.0,30,-99.99,,,-99.99,,2013-04-28 23:52:00,
2013-04-28 18:01:00,61.0,30.0,29.84,NNW,335,15.0,-999.0,30,-99.99,,,-99.99,,2013-04-29 00:01:00,
2013-04-28 18:11:00,61.0,29.0,29.85,NW,311,14.0,-999.0,30,-99.99,,,-99.99,,2013-04-29 00:11:00,
2013-04-28 18:22:00,61.0,29.0,29.85,NW,321,16.0,-999.0,30,-99.99,,,-99.99,,2013-04-29 00:22:00,
2013-04-28 18:32:00,61.0,29.0,29.86,NW,316,15.0,-999.0,30,-99.99,,,-99.99,,2013-04-29 00:32:00,
2013-04-28 18:42:00,61.0,29.0,29.86,NW,316,15.0,-999.0,30,-99.99,,,-99.99,,2013-04-29 00:42:00,
2013-04-28 18:52:00,61.0,31.0,29.83,North,-999,10.0,-999.0,33,-99.99,,,-99.99,,2013-04-29 00:52:00,
2013-04-28 19:01:00,60.0,31.0,29.84,South,173,10.0,-999.0,33,-99.99,,,-99.99,,2013-04-29 01:01:00,
2013-04-28 19:12:00,60.0,31.0,29.84,North,-999,9.0,-999.0,33,-99.99,,,-99.99,,2013-04-29 01:12:00,
2013-04-28 19:21:00,60.0,32.0,29.85,WNW,282,10.0,-999.0,34,-99.99,,,-99.99,,2013-04-29 01:21:00,
2013-04-28 19:32:00,60.0,32.0,29.83,South,172,9.0,-999.0,35,-99.99,,,-99.99,,2013-04-29 01:32:00,
2013-04-28 19:42:00,60.0,33.0,29.85,WNW,287,10.0,-999.0,36,-99.99,,,-99.99,,2013-04-29 01:42:00,
2013-04-28 19:52:00,59.0,34.0,29.84,North,-999,9.0,-999.0,40,-99.99,,,-99.99,,2013-04-29 01:52:00,
2013-04-28 20:02:00,58.0,34.0,29.84,North,-999,9.0,-999.0,39,-99.99,,,-99.99,,2013-04-29 02:02:00,
2013-04-28 20:11:00,58.0,33.0,29.84,North,1,9.0,-999.0,38,-99.99,,,-99.99,,2013-04-29 02:11:00,
2013-04-28 20:22:00,58.0,33.0,29.83,North,5,10.0,-999.0,38,-99.99,,,-99.99,,2013-04-29 02:22:00,
2013-04-28 20:32:00,58.0,34.0,29.84,North,2,7.0,-999.0,40,-99.99,,,-99.99,,2013-04-29 02:32:00,
2013-04-28 20:42:00,58.0,33.0,29.84,North,4,9.0,-999.0,39,-99.99,,,-99.99,,2013-04-29 02:42:00,
2013-04-28 20:51:00,58.0,32.0,29.86,North,-999,9.0,-999.0,38,-99.99,,,-99.99,,2013-04-29 02:51:00,
2013-04-28 21:01:00,57.0,32.0,29.86,NNW,328,10.0,-999.0,38,-99.99,,,-99.99,,2013-04-29 03:01:00,
2013-04-28 21:12:00,56.0,33.0,29.85,NNW,330,8.0,-999.0,41,-99.99,,,-99.99,,2013-04-29 03:12:00,
2013-04-28 21:21:00,56.0,32.0,29.87,NW,309,8.0,-999.0,40,-99.99,,,-99.99,,2013-04-29 03:21:00,
2013-04-28 21:33:00,56.0,32.0,29.87,NNW,332,13.0,-999.0,40,-99.99,,,-99.99,,2013-04-29 03:33:00,
2013-04-28 21:42:00,55.0,33.0,29.88,South,173,12.0,-999.0,43,-99.99,,,-99.99,,2013-04-29 03:42:00,
2013-04-28 21:52:00,55.0,34.0,29.89,North,-999,19.0,-999.0,45,-99.99,,,-99.99,,2013-04-29 03:52:00,
2013-04-28 22:03:00,55.0,34.0,29.89,North,-999,19.0,-999.0,45,-99.99,,,-99.99,,2013-04-29 04:03:00,
2013-04-28 22:13:00,54.0,35.0,29.87,East,92,22.0,-999.0,47,-99.99,,,-99.99,,2013-04-29 04:13:00,
2013-04-28 22:23:00,53.0,35.0,29.89,North,3,21.0,-999.0,50,-99.99,,,-99.99,,2013-04-29 04:23:00,
2013-04-28 22:33:00,53.0,36.0,29.90,NNE,13,15.0,-999.0,53,-99.99,,,-99.99,,2013-04-29 04:33:00,
2013-04-28 22:43:00,52.0,37.0,29.90,NNE,19,17.0,-999.0,56,-99.99,,,-99.99,,2013-04-29 04:43:00,
2013-04-28 22:52:00,52.0,37.0,29.90,South,174,21.0,-999.0,57,-99.99,,,-99.99,,2013-04-29 04:52:00,
2013-04-28 23:02:00,51.0,38.0,29.89,NNE,17,18.0,-999.0,60,-99.99,,,-99.99,,2013-04-29 05:02:00,
2013-04-28 23:12:00,51.0,39.0,29.92,West,259,15.0,-999.0,64,-99.99,,,-99.99,,2013-04-29 05:12:00,
2013-04-28 23:22:00,50.0,40.0,29.92,North,-999,11.0,-999.0,68,-99.99,,,-99.99,,2013-04-29 05:22:00,
2013-04-28 23:32:00,50.0,40.0,29.92,North,-999,13.0,-999.0,69,-99.99,,,-99.99,,2013-04-29 05:32:00,
2013-04-28 23:42:00,49.0,41.0,29.92,NNW,343,12.0,-999.0,74,-99.99,,,-99.99,,2013-04-29 05:42:00,
2013-04-28 23:52:00,48.0,43.0,29.92,North,10,7.0,-999.0,80,-99.99,,,-99.99,,2013-04-29 05:52:00,